contact:dominique.lefevre@mio.osupytheas.fr, maurice.libes@osupytheas.fr
Project:EMSO Ligure-ouest http://www.emso-fr.org/EMSO-France
Sensor Aquadopp, line 13 Serial AQD14315 
DOI : "https://doi.org/10.17882/74513; https://doi.org/10.17882/83244" 
Title:EMSO Ligure Ouest : Data ligne ALBATROSS capteur AQUADOPP - deploiement 2021
Id,Date,Profondeur,Latitude,Longitude,X_East,Y_North,Z_Up,Amplitude_X,Amplitude_Y,Amplitude_Z,Batterie,SoundSpeed,Heading,Pitch,Roll,Pressure,Temperature,Speed,Direction
, , m, degrees North, degrees East, m.s-1, m.s-1,m.s-1, 1, 1, 1, Volt, m.s-1, degree, degree, degree, dbar, degree_C, m.s-1, degree
07,2022-03-30T21:30:00,1500.0,42.79,6.0312,-0.007,0.015,-0.017,56.0,58.0,56.0,12.1,1504.3,154.4,-0.1,0.0,1472.256,13.17,0.016,335.0
07,2022-03-30T22:00:00,1500.0,42.79,6.0312,-0.005,0.013,0.01,60.0,58.0,55.0,12.1,1504.3,153.9,-0.2,-0.2,1472.218,13.17,0.013,339.0
07,2022-03-30T22:30:00,1500.0,42.79,6.0312,-0.009,0.0,0.001,58.0,56.0,55.0,12.1,1504.3,148.9,-0.1,0.0,1472.227,13.17,0.009,270.0
07,2022-03-30T23:00:00,1500.0,42.79,6.0312,-0.009,0.0,0.001,56.0,56.0,53.0,12.1,1504.3,146.6,-0.1,-0.1,1472.175,13.17,0.009,270.0
07,2022-03-30T23:30:00,1500.0,42.79,6.0312,0.003,-0.003,0.015,56.0,55.0,56.0,12.1,1504.3,146.2,0.1,-0.2,1472.185,13.17,0.004,135.0
07,2022-03-31T00:00:00,1500.0,42.79,6.0312,0.001,-0.012,0.009,58.0,57.0,59.0,12.1,1504.3,146.5,-0.1,-0.2,1472.15,13.17,0.012,175.2
07,2022-03-31T00:30:00,1500.0,42.79,6.0312,-0.003,-0.016,0.0,55.0,54.0,57.0,12.1,1504.3,146.5,0.2,-0.3,1472.13,13.17,0.016,190.6
07,2022-03-31T01:00:00,1500.0,42.79,6.0312,-0.009,-0.016,0.007,56.0,56.0,55.0,12.1,1504.3,149.1,0.0,-0.3,1472.132,13.17,0.018,209.4
07,2022-03-31T01:30:00,1500.0,42.79,6.0312,-0.023,-0.016,-0.011,54.0,56.0,57.0,12.1,1504.3,147.8,0.2,-0.3,1472.137,13.17,0.028,235.2
07,2022-03-31T02:00:00,1500.0,42.79,6.0312,-0.018,-0.026,0.007,55.0,55.0,55.0,12.1,1504.3,146.3,0.1,-0.4,1472.162,13.17,0.031,214.7
07,2022-03-31T02:30:00,1500.0,42.79,6.0312,-0.017,-0.021,-0.003,55.0,55.0,53.0,12.1,1504.3,148.0,-0.1,-0.1,1472.165,13.17,0.027,219.0
07,2022-03-31T03:00:00,1500.0,42.79,6.0312,-0.015,-0.028,0.005,53.0,55.0,53.0,12.1,1504.3,147.4,0.3,0.0,1472.179,13.17,0.031,208.2
07,2022-03-31T03:30:00,1500.0,42.79,6.0312,-0.019,-0.015,-0.002,53.0,55.0,55.0,12.1,1504.3,145.3,0.1,-0.1,1472.226,13.17,0.024,231.7
07,2022-03-31T04:00:00,1500.0,42.79,6.0312,-0.019,-0.018,-0.015,53.0,56.0,53.0,12.1,1504.3,150.2,-0.2,-0.4,1472.268,13.17,0.026,226.5
07,2022-03-31T04:30:00,1500.0,42.79,6.0312,-0.023,-0.014,-0.002,54.0,57.0,55.0,12.1,1504.3,144.8,0.3,-0.4,1472.302,13.17,0.026,238.7
07,2022-03-31T05:00:00,1500.0,42.79,6.0312,-0.031,-0.012,0.0,55.0,56.0,56.0,12.1,1504.3,142.9,-0.5,-0.2,1472.32,13.17,0.033,248.8
07,2022-03-31T05:30:00,1500.0,42.79,6.0312,-0.024,-0.016,0.003,54.0,56.0,55.0,12.1,1504.3,142.3,0.1,-0.3,1472.366,13.17,0.028,236.3
07,2022-03-31T06:00:00,1500.0,42.79,6.0312,-0.038,-0.01,-0.006,53.0,57.0,58.0,12.1,1504.3,144.9,-0.2,-0.2,1472.342,13.17,0.039,255.3
07,2022-03-31T06:30:00,1500.0,42.79,6.0312,-0.03,-0.007,-0.003,56.0,56.0,55.0,12.1,1504.3,147.7,0.2,-0.1,1472.383,13.17,0.03,256.9
07,2022-03-31T07:00:00,1500.0,42.79,6.0312,-0.038,-0.003,-0.006,54.0,53.0,52.0,12.1,1504.3,148.5,-0.1,0.0,1472.401,13.17,0.038,265.5
07,2022-03-31T07:30:00,1500.0,42.79,6.0312,-0.04,-0.02,-0.002,53.0,55.0,55.0,12.1,1504.3,146.5,0.2,-0.3,1472.376,13.17,0.044,243.4
07,2022-03-31T08:00:00,1500.0,42.79,6.0312,-0.037,-0.007,-0.002,54.0,57.0,55.0,12.1,1504.3,141.5,0.1,-0.2,1472.39,13.17,0.037,259.3
07,2022-03-31T08:30:00,1500.0,42.79,6.0312,-0.04,0.0,0.008,54.0,56.0,54.0,12.1,1504.3,147.1,-0.3,-0.3,1472.394,13.17,0.04,270.0
07,2022-03-31T09:00:00,1500.0,42.79,6.0312,-0.045,0.009,-0.007,56.0,56.0,56.0,12.1,1504.3,150.5,0.1,-0.3,1472.375,13.17,0.045,281.3
07,2022-03-31T09:30:00,1500.0,42.79,6.0312,-0.042,0.002,-0.004,54.0,55.0,56.0,12.1,1504.3,156.6,-0.1,-0.2,1472.336,13.17,0.042,272.7
07,2022-03-31T10:00:00,1500.0,42.79,6.0312,-0.044,0.003,-0.004,56.0,55.0,54.0,12.1,1504.3,155.1,0.4,-0.1,1472.305,13.17,0.044,273.9
07,2022-03-31T10:30:00,1500.0,42.79,6.0312,-0.044,-0.007,-0.012,56.0,55.0,54.0,12.1,1504.3,154.6,0.2,0.0,1472.259,13.18,0.044,261.0
07,2022-03-31T11:00:00,1500.0,42.79,6.0312,-0.041,0.003,-0.003,55.0,54.0,55.0,12.1,1504.3,152.6,0.2,0.0,1472.258,13.17,0.041,274.2
07,2022-03-31T11:30:00,1500.0,42.79,6.0312,-0.045,0.0,0.015,55.0,55.0,56.0,12.1,1504.3,154.1,-0.2,-0.3,1472.192,13.17,0.045,270.0
07,2022-03-31T12:00:00,1500.0,42.79,6.0312,-0.032,0.021,-0.001,54.0,55.0,55.0,12.1,1504.3,159.3,-0.3,-0.2,1472.209,13.17,0.038,303.3
07,2022-03-31T12:30:00,1500.0,42.79,6.0312,-0.038,0.014,0.0,54.0,56.0,54.0,12.1,1504.3,159.9,0.4,-0.1,1472.163,13.17,0.04,290.2
07,2022-03-31T13:00:00,1500.0,42.79,6.0312,-0.033,0.018,0.009,55.0,56.0,55.0,12.1,1504.3,158.5,0.3,-0.2,1472.177,13.17,0.037,298.6
07,2022-03-31T13:30:00,1500.0,42.79,6.0312,-0.043,0.008,0.007,54.0,55.0,56.0,12.1,1504.2,164.1,0.4,-0.2,1472.189,13.16,0.043,280.5
07,2022-03-31T14:00:00,1500.0,42.79,6.0312,-0.033,0.019,-0.003,55.0,56.0,55.0,12.1,1504.2,154.0,0.2,-0.1,1472.186,13.16,0.038,299.9
07,2022-03-31T14:30:00,1500.0,42.79,6.0312,-0.024,0.015,0.005,54.0,54.0,54.0,12.1,1504.2,156.0,-0.2,0.0,1472.175,13.16,0.028,302.0
07,2022-03-31T15:00:00,1500.0,42.79,6.0312,-0.024,0.023,0.0,56.0,54.0,56.0,12.1,1504.2,155.6,0.0,-0.1,1472.175,13.16,0.033,313.8
07,2022-03-31T15:30:00,1500.0,42.79,6.0312,-0.042,0.01,-0.006,54.0,55.0,55.0,12.1,1504.2,165.1,0.4,-0.3,1472.206,13.16,0.043,283.4
07,2022-03-31T16:00:00,1500.0,42.79,6.0312,-0.039,0.013,-0.01,53.0,53.0,55.0,12.1,1504.2,167.7,0.1,-0.2,1472.225,13.16,0.041,288.4
07,2022-03-31T16:30:00,1500.0,42.79,6.0312,-0.024,0.004,-0.006,56.0,55.0,55.0,12.1,1504.2,165.8,-0.2,-0.3,1472.272,13.16,0.024,279.5
07,2022-03-31T17:00:00,1500.0,42.79,6.0312,-0.018,0.01,-0.007,53.0,56.0,56.0,12.1,1504.2,163.5,0.1,-0.2,1472.289,13.16,0.02,299.1
07,2022-03-31T17:30:00,1500.0,42.79,6.0312,-0.031,0.01,-0.012,54.0,55.0,54.0,12.1,1504.2,163.0,-0.2,0.0,1472.295,13.16,0.032,287.9
07,2022-03-31T18:00:00,1500.0,42.79,6.0312,-0.028,0.015,-0.016,52.0,55.0,57.0,12.1,1504.2,162.2,0.0,-0.2,1472.297,13.16,0.031,298.2
07,2022-03-31T18:30:00,1500.0,42.79,6.0312,-0.024,0.0,-0.015,56.0,55.0,53.0,12.1,1504.2,165.1,0.1,-0.3,1472.333,13.16,0.024,270.0
07,2022-03-31T19:00:00,1500.0,42.79,6.0312,-0.03,0.018,-0.007,53.0,56.0,55.0,12.1,1504.3,174.3,0.0,-0.3,1472.356,13.17,0.034,301.0
07,2022-03-31T19:30:00,1500.0,42.79,6.0312,-0.031,0.015,-0.005,55.0,55.0,55.0,12.1,1504.3,173.7,0.4,-0.2,1472.376,13.17,0.034,295.8
07,2022-03-31T20:00:00,1500.0,42.79,6.0312,-0.023,0.002,-0.007,54.0,55.0,53.0,12.1,1504.3,178.8,0.3,-0.2,1472.375,13.17,0.023,275.0
07,2022-03-31T20:30:00,1500.0,42.79,6.0312,-0.018,0.013,-0.011,54.0,55.0,57.0,12.1,1504.3,180.6,-0.2,0.0,1472.323,13.17,0.022,305.8
07,2022-03-31T21:00:00,1500.0,42.79,6.0312,-0.018,0.015,0.011,53.0,53.0,56.0,12.1,1504.3,175.9,-0.4,-0.2,1472.328,13.17,0.023,309.8
